Back to catalog

STARLINK-2155

AliveCommunicationsVLEO
NORAD 48557·PAYLOAD·🇺🇸 United States

Launched May 15, 2021 from Cape Canaveral Space Force Station

Loading…

Next Passes (next 24 hours)

TLE

FreshSource: CelesTrak SupGP

Epoch: Sep 14, 2026, 13:38 UTC

1 48557C 21041E   26257.56854167  .00024903  00000+0  80087-3 0  2571
2 48557  53.1577 327.8560 0001115  89.2451 348.6056 15.31686962    17

Track STARLINK-2155 in real time with AllMySat

Download on the App Store